Location: Asheville, NC
(35.6000°N, 82.5500°W)
Time: 09:27:24
(UTC-04:00)

Vanguard 2 Rocket - Pass Details

Date: 11 March 2018
Orbit: 553 x 3328 km, 32.9° (Epoch: 24 June)

Event Time Altitude Azimuth Distance (km) Brightness Sun altitude
Rises 18:26:29 0° 234° (SW) 2,704 10.7 12.8°
Reaches altitude 10° 18:28:41 10° 224° (SW) 1,835 9.6 12.4°
Maximum altitude 18:32:19 34° 157° (SSE) 1,031 7.2 11.6°
Drops below altitude 10° 18:36:57 10° 93° (E) 2,362 8.5 10.7°
Sets 18:40:11 0° 84° (E) 3,639 9.3 10.1°
